| time (UTC) | temp C | wind direction | speed KPH | gust KPH | rain 1hr cm | rain 24hr cm | rain mn cm | humidity % | barometer mb |
| 20260906021503 | 28 | 335 | 4.8 | 9.7 | 0.00 | 0.00 | 0.00 | 73 | 1013.1 |
| 20260906020002 | 28 | 340 | 4.8 | 14.5 | 0.00 | 0.00 | 0.00 | 73 | 1012.9 |
| 20260906014503 | 28 | 35 | 3.2 | 8.0 | 0.00 | 0.00 | 0.00 | 73 | 1012.6 |
| 20260906013043 | 29 | 18 | 0.0 | 4.8 | 0.00 | 0.00 | 0.00 | 72 | 1012.4 |
| 20260906011517 | 29 | 356 | 0.0 | 3.2 | 0.00 | 0.00 | 0.00 | 71 | 1012.4 |
| 20260906010011 | 30 | 6 | 1.6 | 4.8 | 0.00 | 0.00 | 0.00 | 70 | 1012.2 |
| 20260906004504 | 30 | 11 | 1.6 | 3.2 | 0.00 | 0.00 | 0.00 | 67 | 1012.0 |
| 20260906003013 | 31 | 5 | 0.0 | 3.2 | 0.00 | 0.00 | 0.00 | 66 | 1011.8 |
| 20260906001536 | 31 | 18 | 1.6 | 6.4 | 0.00 | 0.00 | 0.00 | 64 | 1011.9 |
| 20260906000023 | 31 | 354 | 1.6 | 8.0 | 0.00 | 0.00 | 0.00 | 63 | 1012.0 |
| 20260905234526 | 32 | 14 | 3.2 | 8.0 | 0.00 | 0.00 | 0.00 | 61 | 1011.9 |
| 20260905233029 | 32 | 13 | 1.6 | 11.3 | 0.00 | 0.00 | 0.00 | 61 | 1011.9 |
| 20260905231537 | 32 | 21 | 4.8 | 9.7 | 0.00 | 0.00 | 0.00 | 60 | 1012.0 |
| 20260905230037 | 32 | 299 | 4.8 | 16.1 | 0.00 | 0.00 | 0.00 | 57 | 1011.9 |
| 20260905224542 | 33 | 20 | 3.2 | 14.5 | 0.00 | 0.00 | 0.00 | 55 | 1011.7 |
| 20260905223032 | 33 | 34 | 1.6 | 8.0 | 0.00 | 0.00 | 0.00 | 55 | 1011.7 |
| 20260905221528 | 33 | 4 | 4.8 | 12.9 | 0.00 | 0.00 | 0.00 | 54 | 1011.7 |
| 20260905220022 | 33 | 307 | 3.2 | 12.9 | 0.00 | 0.00 | 0.00 | 54 | 1011.7 |
| 20260905214522 | 33 | 354 | 4.8 | 9.7 | 0.00 | 0.00 | 0.00 | 53 | 1011.7 |
| 20260905213030 | 33 | 306 | 4.8 | 11.3 | 0.00 | 0.00 | 0.00 | 52 | 1011.7 |
| 20260905211530 | 34 | 350 | 1.6 | 12.9 | 0.00 | 0.00 | 0.00 | 52 | 1011.8 |
| 20260905210034 | 34 | 304 | 3.2 | 12.9 | 0.00 | 0.00 | 0.00 | 50 | 1011.8 |
| 20260905204515 | 33 | 345 | 3.2 | 14.5 | 0.00 | 0.00 | 0.00 | 52 | 1012.0 |
| 20260905203025 | 34 | 232 | 1.6 | 14.5 | 0.00 | 0.00 | 0.00 | 50 | 1012.0 |
| 20260905201508 | 34 | 67 | 1.6 | 11.3 | 0.00 | 0.00 | 0.00 | 49 | 1012.2 |
| 20260905200104 | 35 | 324 | 4.8 | 14.5 | 0.00 | 0.00 | 0.00 | 48 | 1012.2 |
| 20260905194502 | 36 | 48 | 8.0 | 14.5 | 0.00 | 0.00 | 0.00 | 44 | 1012.1 |
| 20260905193058 | 37 | 100 | 1.6 | 4.8 | 0.00 | 0.00 | 0.00 | 43 | 1012.3 |
| 20260905191549 | 37 | 277 | 1.6 | 4.8 | 0.00 | 0.00 | 0.00 | 43 | 1012.4 |
| 20260905190057 | 36 | 276 | 1.6 | 4.8 | 0.00 | 0.00 | 0.00 | 44 | 1012.5 |
| 20260905184551 | 36 | 196 | 0.0 | 14.5 | 0.00 | 0.00 | 0.00 | 45 | 1012.7 |
| 20260905183054 | 37 | 2 | 4.8 | 12.9 | 0.00 | 0.00 | 0.00 | 42 | 1012.9 |
| 20260905181549 | 36 | 340 | 1.6 | 6.4 | 0.00 | 0.00 | 0.00 | 45 | 1012.9 |
| 20260905180051 | 36 | 20 | 1.6 | 8.0 | 0.00 | 0.00 | 0.00 | 45 | 1013.1 |
| 20260905174527 | 36 | 274 | 1.6 | 8.0 | 0.00 | 0.00 | 0.00 | 46 | 1013.2 |
| 20260905173022 | 35 | 269 | 0.0 | 8.0 | 0.00 | 0.00 | 0.00 | 46 | 1013.1 |
| 20260905171519 | 35 | 329 | 1.6 | 9.7 | 0.00 | 0.00 | 0.00 | 46 | 1013.3 |
| 20260905170020 | 35 | 270 | 1.6 | 11.3 | 0.00 | 0.00 | 0.00 | 47 | 1013.5 |
| 20260905164508 | 35 | 257 | 1.6 | 8.0 | 0.00 | 0.00 | 0.00 | 48 | 1013.6 |
| 20260905163006 | 35 | 215 | 0.0 | 6.4 | 0.00 | 0.00 | 0.00 | 49 | 1013.6 |
| 20260905161504 | 35 | 292 | 0.0 | 6.4 | 0.00 | 0.00 | 0.00 | 48 | 1013.5 |
| 20260905160044 | 35 | 345 | 0.0 | 6.4 | 0.00 | 0.00 | 0.00 | 49 | 1013.7 |
| 20260905154548 | 35 | 281 | 0.0 | 4.8 | 0.00 | 0.00 | 0.00 | 49 | 1013.7 |
| 20260905153047 | 35 | 217 | 0.0 | 3.2 | 0.00 | 0.00 | 0.00 | 49 | 1013.6 |
| 20260905151539 | 33 | 187 | 0.0 | 3.2 | 0.00 | 0.00 | 0.00 | 53 | 1013.5 |
| 20260905150014 | 32 | 231 | 0.0 | 3.2 | 0.00 | 0.00 | 0.00 | 54 | 1013.4 |
| 20260905144516 | 31 | 190 | 0.0 | 3.2 | 0.00 | 0.00 | 0.00 | 60 | 1013.3 |
| 20260905143102 | 30 | 190 | 0.0 | 1.6 | 0.00 | 0.00 | 0.00 | 68 | 1013.3 |
| 20260905141557 | 30 | 190 | 0.0 | 0.0 | 0.00 | 0.00 | 0.00 | 65 | 1013.5 |
| 20260905140103 | 29 | 190 | 0.0 | 0.0 | 0.00 | 0.00 | 0.00 | 66 | 1013.5 |
| 20260905134549 | 29 | 190 | 0.0 | 1.6 | 0.00 | 0.00 | 0.00 | 70 | 1013.5 |
| 20260905133038 | 27 | 190 | 0.0 | 1.6 | 0.00 | 0.00 | 0.00 | 74 | 1013.5 |
| 20260905131557 | 27 | 190 | 0.0 | 1.6 | 0.00 | 0.00 | 0.00 | 78 | 1013.4 |
| 20260905130028 | 26 | 190 | 0.0 | 0.0 | 0.00 | 0.00 | 0.00 | 80 | 1013.5 |
| 20260905124523 | 25 | 190 | 0.0 | 0.0 | 0.00 | 0.00 | 0.00 | 82 | 1013.3 |
| 20260905123013 | 24 | 190 | 0.0 | 0.0 | 0.00 | 0.00 | 0.00 | 83 | 1013.3 |
| 20260905121520 | 23 | 190 | 0.0 | 0.0 | 0.00 | 0.00 | 0.00 | 83 | 1013.1 |
| 20260905120024 | 23 | 190 | 0.0 | 0.0 | 0.00 | 0.00 | 0.00 | 82 | 1012.9 |
| 20260905114559 | 23 | 190 | 0.0 | 0.0 | 0.00 | 0.00 | 0.00 | 81 | 1012.8 |
| 20260905113038 | 23 | 190 | 0.0 | 0.0 | 0.00 | 0.00 | 0.00 | 81 | 1012.7 |
| 20260905111543 | 23 | 190 | 0.0 | 0.0 | 0.00 | 0.00 | 0.00 | 81 | 1012.6 |
| 20260905110040 | 23 | 190 | 0.0 | 0.0 | 0.00 | 0.00 | 0.00 | 81 | 1012.5 |
| 20260905104550 | 23 | 190 | 0.0 | 0.0 | 0.00 | 0.00 | 0.00 | 81 | 1012.6 |
| 20260905103038 | 23 | 190 | 0.0 | 0.0 | 0.00 | 0.00 | 0.00 | 81 | 1012.6 |
| 20260905101539 | 23 | 190 | 0.0 | 0.0 | 0.00 | 0.00 | 0.00 | 81 | 1012.6 |
| 20260905100012 | 23 | 190 | 0.0 | 0.0 | 0.00 | 0.00 | 0.00 | 81 | 1012.7 |
| 20260905094547 | 23 | 190 | 0.0 | 0.0 | 0.00 | 0.00 | 0.00 | 82 | 1012.7 |
| 20260905093101 | 23 | 190 | 0.0 | 0.0 | 0.00 | 0.00 | 0.00 | 82 | 1012.7 |
| 20260905091538 | 23 | 190 | 0.0 | 0.0 | 0.00 | 0.00 | 0.00 | 82 | 1012.7 |
| 20260905090016 | 23 | 190 | 0.0 | 1.6 | 0.00 | 0.00 | 0.00 | 82 | 1012.7 |
| 20260905084518 | 23 | 190 | 0.0 | 0.0 | 0.00 | 0.00 | 0.00 | 82 | 1012.9 |
| 20260905083016 | 23 | 190 | 1.6 | 3.2 | 0.00 | 0.00 | 0.00 | 82 | 1012.8 |
| 20260905081513 | 23 | 164 | 0.0 | 3.2 | 0.00 | 0.00 | 0.00 | 82 | 1013.1 |
| 20260905080008 | 24 | 87 | 0.0 | 0.0 | 0.00 | 0.00 | 0.00 | 81 | 1013.1 |
| 20260905074608 | 24 | 87 | 0.0 | 0.0 | 0.00 | 0.00 | 0.00 | 81 | 1013.1 |
| 20260905073050 | 25 | 87 | 0.0 | 0.0 | 0.00 | 0.00 | 0.00 | 81 | 1013.1 |
| 20260905071546 | 25 | 87 | 0.0 | 0.0 | 0.00 | 0.00 | 0.00 | 81 | 1013.1 |
| 20260905070056 | 25 | 87 | 0.0 | 0.0 | 0.00 | 0.00 | 0.00 | 80 | 1013.0 |
| 20260905064544 | 25 | 87 | 0.0 | 0.0 | 0.00 | 0.00 | 0.00 | 80 | 1013.0 |
| 20260905063036 | 25 | 87 | 0.0 | 0.0 | 0.00 | 0.00 | 0.00 | 79 | 1012.9 |
| 20260905061548 | 25 | 87 | 0.0 | 0.0 | 0.00 | 0.00 | 0.00 | 79 | 1013.1 |
| 20260905060044 | 25 | 87 | 0.0 | 0.0 | 0.00 | 0.00 | 0.00 | 79 | 1013.1 |
| 20260905054539 | 25 | 87 | 0.0 | 0.0 | 0.00 | 0.00 | 0.00 | 80 | 1013.0 |
| 20260905053024 | 25 | 87 | 0.0 | 0.0 | 0.00 | 0.00 | 0.00 | 80 | 1012.9 |
| 20260905051526 | 25 | 87 | 0.0 | 0.0 | 0.00 | 0.00 | 0.00 | 80 | 1012.9 |
| 20260905050017 | 26 | 87 | 0.0 | 0.0 | 0.00 | 0.00 | 0.00 | 79 | 1013.0 |
| 20260905044512 | 26 | 87 | 0.0 | 0.0 | 0.00 | 0.00 | 0.00 | 80 | 1013.1 |
| 20260905043045 | 26 | 87 | 0.0 | 0.0 | 0.00 | 0.00 | 0.00 | 79 | 1013.2 |
| 20260905041537 | 26 | 87 | 0.0 | 0.0 | 0.00 | 0.00 | 0.00 | 79 | 1013.3 |
| 20260905040021 | 26 | 87 | 0.0 | 0.0 | 0.00 | 0.00 | 0.00 | 79 | 1013.2 |
| 20260905034537 | 26 | 87 | 0.0 | 0.0 | 0.00 | 0.00 | 0.00 | 78 | 1013.2 |
| 20260905033035 | 26 | 87 | 0.0 | 0.0 | 0.00 | 0.00 | 0.00 | 78 | 1013.1 |
| 20260905031532 | 26 | 87 | 0.0 | 0.0 | 0.00 | 0.00 | 0.00 | 77 | 1013.1 |
| 20260905030023 | 27 | 87 | 0.0 | 0.0 | 0.00 | 0.00 | 0.00 | 77 | 1013.0 |
| 20260905024515 | 27 | 87 | 0.0 | 0.0 | 0.00 | 0.00 | 0.00 | 77 | 1012.8 |
| 20260905023020 | 27 | 87 | 0.0 | 0.0 | 0.00 | 0.00 | 0.00 | 76 | 1012.7 |